Location: Newark
(12.4436°N, 0.6167°W)
Time: 13:14:30
(UTC+00:00)

Vanguard 2 - Pass Details

Date: 08 December 2019
Orbit: 553 x 2938 km, 32.9° (Epoch: 27 January)

Event Time Altitude Azimuth Distance (km) Brightness Sun altitude
Rises 05:14:50 0° 295° (WNW) 6,748 - -13.7°
Reaches altitude 10° 05:20:09 10° 304° (WNW) 5,767 - -12.5°
Exits shadow 05:21:05 12° 305° (NW) 5,600 11.3 -12.3°
Maximum altitude 05:35:33 35° 4° (N) 3,704 10.8 -9.0°
Drops below altitude 10° 05:47:34 10° 65° (ENE) 4,538 12.1 -6.3°
Sets 05:51:08 0° 74° (ENE) 5,215 12.7 -5.4°
